When you browse on this site, cookies collect data to enhance your experience and personalize the content and advertising you see.
Visit our Privacy Policy to learn more. By continuing to use the site, you agree to this use of cookies and data.
  • En España
  • Lista de países
  • Para 7 días
  • Temperatura del agua
  • Mapa Satelital
  • El tiempo en el mapa
  • Informadores
  • user-avatar
    Iniciar sesión

    Tiempo cada hora Elbasan

    Hoy, 17 Diciembre, Lunes

    Tiempo Temperatura Precipitaciones Viento Presión Humedad
    00:00 +4°C° 0 mm 1 mps 736 mmHg 76%
    01:00 +5°C° 0 mm 1 mps 735 mmHg 76%
    02:00 +5°C° 0 mm 1 mps 735 mmHg 74%
    03:00 +5°C° 0 mm 1 mps 735 mmHg 72%
    04:00 +6°C° 0 mm 1 mps 735 mmHg 70%
    05:00 +6°C° 0.1 mm 1 mps 735 mmHg 68%
    06:00 +6°C° 0.1 mm 1 mps 735 mmHg 67%
    07:00 +5°C° 0 mm 2 mps 735 mmHg 64%
    08:00 +6°C° 0.1 mm 2 mps 735 mmHg 65%
    09:00 +7°C° 0.1 mm 2 mps 735 mmHg 66%
    10:00 +7°C° 0.1 mm 2 mps 734 mmHg 67%
    11:00 +7°C° 0.1 mm 2 mps 734 mmHg 68%
    12:00 +7°C° 0.1 mm 2 mps 734 mmHg 69%
    13:00 +8°C° 0.1 mm 2 mps 733 mmHg 70%
    14:00 +7°C° 0.5 mm 3 mps 733 mmHg 72%
    15:00 +7°C° 0.5 mm 3 mps 732 mmHg 74%
    16:00 +7°C° 0.5 mm 3 mps 732 mmHg 77%
    17:00 +7°C° 0.7 mm 3 mps 732 mmHg 78%
    18:00 +7°C° 0.7 mm 3 mps 732 mmHg 80%
    19:00 +7°C° 0.7 mm 3 mps 732 mmHg 81%
    20:00 +5°C° 1.8 mm 3 mps 733 mmHg 83%
    21:00 +5°C° 1.8 mm 3 mps 733 mmHg 85%
    22:00 +4°C° 1.8 mm 3 mps 733 mmHg 87%
    23:00 +4°C° 1.3 mm 3 mps 734 mmHg 87%

    Mañana, 18 Diciembre, Martes

    Tiempo Temperatura Precipitaciones Viento Presión Humedad
    00:00 +4°C° 1.3 mm 4 mps 734 mmHg 87%
    01:00 +3°C° 1.3 mm 4 mps 734 mmHg 87%
    02:00 +3°C° 0.2 mm 4 mps 734 mmHg 86%
    03:00 +3°C° 0.2 mm 4 mps 734 mmHg 85%
    04:00 +3°C° 0.2 mm 3 mps 734 mmHg 84%
    05:00 +2°C° 0.1 mm 3 mps 735 mmHg 83%
    06:00 +2°C° 0.1 mm 3 mps 735 mmHg 83%
    07:00 +2°C° 0.1 mm 3 mps 736 mmHg 83%
    08:00 +3°C° 0 mm 4 mps 736 mmHg 81%
    09:00 +3°C° 0 mm 4 mps 736 mmHg 79%
    10:00 +4°C° 0 mm 4 mps 737 mmHg 78%
    11:00 +4°C° 0 mm 3 mps 737 mmHg 78%
    12:00 +5°C° 0 mm 3 mps 737 mmHg 77%
    13:00 +5°C° 0 mm 3 mps 737 mmHg 77%
    14:00 +5°C° 0 mm 3 mps 737 mmHg 79%
    15:00 +4°C° 0 mm 3 mps 737 mmHg 80%
    16:00 +4°C° 0 mm 3 mps 737 mmHg 81%
    17:00 +3°C° 0 mm 3 mps 738 mmHg 82%
    18:00 +3°C° 0 mm 3 mps 738 mmHg 82%
    19:00 +2°C° 0 mm 3 mps 738 mmHg 83%
    20:00 +3°C° 0 mm 2 mps 739 mmHg 82%
    21:00 +3°C° 0 mm 2 mps 739 mmHg 82%
    22:00 +2°C° 0 mm 2 mps 739 mmHg 82%
    23:00 +2°C° 0 mm 2 mps 739 mmHg 81%

    Pasado mañana, 19 Diciembre, Miércoles

    Tiempo Temperatura Precipitaciones Viento Presión Humedad
    00:00 +2°C° 0 mm 2 mps 739 mmHg 81%
    01:00 +1°C° 0 mm 2 mps 739 mmHg 80%
    02:00 +1°C° 0 mm 2 mps 739 mmHg 80%
    03:00 +1°C° 0 mm 2 mps 739 mmHg 80%
    04:00 +1°C° 0 mm 2 mps 739 mmHg 79%
    05:00 +1°C° 0 mm 2 mps 739 mmHg 79%
    06:00 +1°C° 0 mm 2 mps 740 mmHg 79%
    07:00 +1°C° 0 mm 2 mps 740 mmHg 79%
    08:00 +2°C° 0 mm 2 mps 740 mmHg 77%
    09:00 +4°C° 0 mm 2 mps 741 mmHg 75%
    10:00 +5°C° 0 mm 2 mps 741 mmHg 73%
    11:00 +6°C° 0 mm 2 mps 741 mmHg 73%
    12:00 +8°C° 0 mm 1 mps 740 mmHg 73%
    13:00 +8°C° 0 mm 1 mps 740 mmHg 73%
    14:00 +8°C° 0 mm 1 mps 740 mmHg 75%
    15:00 +7°C° 0 mm 1 mps 740 mmHg 78%
    16:00 +6°C° 0 mm 1 mps 740 mmHg 80%
    17:00 +5°C° 0 mm 1 mps 741 mmHg 80%
    18:00 +3°C° 0 mm 2 mps 741 mmHg 81%
    19:00 +2°C° 0 mm 2 mps 742 mmHg 81%
    20:00 +2°C° 0 mm 2 mps 742 mmHg 80%
    21:00 +2°C° 0 mm 2 mps 742 mmHg 79%
    22:00 +2°C° 0 mm 2 mps 742 mmHg 77%
    23:00 +2°C° 0 mm 2 mps 742 mmHg 75%

    20 Diciembre, Jueves

    Tiempo Temperatura Precipitaciones Viento Presión Humedad
    00:00 +2°C° 0 mm 2 mps 742 mmHg 73%
    01:00 +2°C° 0 mm 2 mps 742 mmHg 71%
    02:00 +2°C° 0 mm 2 mps 742 mmHg 70%
    03:00 +2°C° 0 mm 2 mps 741 mmHg 69%
    04:00 +2°C° 0 mm 2 mps 741 mmHg 67%
    05:00 +2°C° 0 mm 2 mps 742 mmHg 66%
    06:00 +2°C° 0 mm 2 mps 742 mmHg 65%
    07:00 +2°C° 0 mm 2 mps 742 mmHg 65%
    08:00 +4°C° 0 mm 2 mps 742 mmHg 66%
    09:00 +6°C° 0 mm 2 mps 742 mmHg 68%
    10:00 +7°C° 0 mm 2 mps 742 mmHg 70%
    11:00 +8°C° 0 mm 2 mps 742 mmHg 69%
    12:00 +9°C° 0 mm 2 mps 741 mmHg 69%
    13:00 +9°C° 0 mm 2 mps 741 mmHg 69%
    14:00 +8°C° 0 mm 2 mps 741 mmHg 70%
    15:00 +8°C° 0 mm 2 mps 741 mmHg 71%
    16:00 +7°C° 0 mm 2 mps 741 mmHg 72%
    17:00 +6°C° 0 mm 2 mps 741 mmHg 72%
    18:00 +6°C° 0 mm 2 mps 741 mmHg 73%
    19:00 +4°C° 0 mm 3 mps 741 mmHg 73%
    20:00 +4°C° 0 mm 3 mps 741 mmHg 74%
    21:00 +4°C° 0 mm 3 mps 741 mmHg 75%
    22:00 +4°C° 0 mm 3 mps 741 mmHg 75%
    23:00 +5°C° 0.1 mm 3 mps 741 mmHg 77%

    21 Diciembre, Viernes

    Tiempo Temperatura Precipitaciones Viento Presión Humedad
    00:00 +5°C° 0.1 mm 3 mps 740 mmHg 78%
    01:00 +7°C° 0.1 mm 3 mps 740 mmHg 80%
    02:00 +7°C° 0.3 mm 3 mps 740 mmHg 82%
    03:00 +7°C° 0.3 mm 3 mps 740 mmHg 85%
    04:00 +7°C° 0.3 mm 2 mps 740 mmHg 87%
    05:00 +7°C° 0.2 mm 2 mps 740 mmHg 88%
    06:00 +7°C° 0.2 mm 2 mps 741 mmHg 89%
    07:00 +7°C° 0.2 mm 2 mps 741 mmHg 90%
    08:00 +8°C° 0 mm 2 mps 741 mmHg 89%
    09:00 +9°C° 0 mm 2 mps 742 mmHg 89%
    10:00 +9°C° 0 mm 2 mps 742 mmHg 88%
    11:00 +10°C° 0 mm 2 mps 742 mmHg 85%
    12:00 +10°C° 0 mm 2 mps 742 mmHg 82%
    13:00 +12°C° 0 mm 1 mps 741 mmHg 79%
    14:00 +11°C° 0 mm 1 mps 742 mmHg 82%
    15:00 +10°C° 0 mm 1 mps 742 mmHg 84%
    16:00 +10°C° 0 mm 1 mps 742 mmHg 86%
    17:00 +9°C° 0 mm 1 mps 742 mmHg 87%
    18:00 +8°C° 0 mm 1 mps 743 mmHg 88%
    19:00 +8°C° 0 mm 1 mps 743 mmHg 90%
    20:00 +7°C° 0 mm 1 mps 743 mmHg 90%
    21:00 +7°C° 0 mm 1 mps 743 mmHg 89%
    22:00 +7°C° 0 mm 1 mps 743 mmHg 89%
    23:00 +7°C° 0 mm 1 mps 743 mmHg 89%

    22 Diciembre, Sábado

    Tiempo Temperatura Precipitaciones Viento Presión Humedad
    00:00 +7°C° 0 mm 1 mps 743 mmHg 88%
    01:00 +7°C° 0 mm 1 mps 743 mmHg 88%
    02:00 +7°C° 0 mm 1 mps 743 mmHg 88%
    03:00 +7°C° 0 mm 1 mps 743 mmHg 88%
    04:00 +7°C° 0 mm 1 mps 742 mmHg 88%
    05:00 +7°C° 0 mm 1 mps 743 mmHg 88%
    06:00 +7°C° 0 mm 1 mps 743 mmHg 89%
    07:00 +7°C° 0 mm 1 mps 743 mmHg 89%
    08:00 +8°C° 0 mm 1 mps 743 mmHg 87%
    09:00 +9°C° 0 mm 1 mps 743 mmHg 85%
    10:00 +10°C° 0 mm 1 mps 743 mmHg 83%
    11:00 +11°C° 0 mm 1 mps 743 mmHg 81%
    12:00 +11°C° 0 mm 1 mps 742 mmHg 79%
    13:00 +12°C° 0 mm 2 mps 742 mmHg 77%
    14:00 +11°C° 0 mm 1 mps 742 mmHg 80%
    15:00 +10°C° 0 mm 1 mps 742 mmHg 83%
    16:00 +10°C° 0 mm 1 mps 742 mmHg 86%
    17:00 +9°C° 0 mm 1 mps 742 mmHg 87%
    18:00 +8°C° 0 mm 1 mps 742 mmHg 88%
    19:00 +8°C° 0 mm 1 mps 742 mmHg 90%
    20:00 +8°C° 0 mm 1 mps 742 mmHg 90%
    21:00 +8°C° 0 mm 1 mps 742 mmHg 89%
    22:00 +8°C° 0 mm 1 mps 742 mmHg 89%
    23:00 +8°C° 0 mm 1 mps 742 mmHg 89%
    Mostrar más